Details From YBBN - Brisbane Intl
To YBHM - Hamilton I.
Flight Number -
Tags decoded
Created
Modified
Stats Distance 480 nm / 888 km
Max Altitude 0 ft / 0 m
Waypoints 2
Social Downloads 0
Likes 0
Share VATSIM

Download

Looking for another format? Having issues loading an existing format? Contact us
Advertisement - Login to hide

Notes

Requested: YBBN N/A YBHM Unmatched points: N/A

Route

YBBN YBHM

ID Type Via Altitude (ft/m) Position (lat/lon) Dist (leg/tot) Name
O YBBN APT - 0 / 0 -27.37571 / 153.12771 - / 0 nm Brisbane Intl
O YBHM APT - 0 / 0 -20.35748 / 148.95164 479 / 479 nm Hamilton I.

Altitude Profile

Advertisement - Login to hide

Weather


0- 5 10 15 20 25 30 35+ Temperature / °C

Clouds and Precipitation
Forecast for 2018-12-14 06:00 UTC. Updated 4 hours ago

Ground ~20,000 ft ~40,000 ft Winds

YBBN

Details ICAO YBBN (BNE)
Name Brisbane Intl
Region Australia
Timezone Australia/Brisbane (UTC+10.0)
Stats Elevation 12 ft / 4 m (AMSL)
Location -27.375800° 153.128000°
Runways 2
Magnetic Variation 10.989° E

METAR

YBBN 140800Z 02020KT 9999 FEW010 BKN250 25/23 Q1004

Decode

TAF

TAF AMD YBBN 140528Z 1406/1512 02018KT 9999 -SHRA SCT030 SCT050 FM140900 03014KT 9999 -SHRA SCT010 BKN020 OVC050 FM142200 03018KT 9999 -SHRA SCT025 BKN040 OVC100 FM150800 03015KT 9999 -SHRA SCT020 BKN030 BKN050 INTER 1406/1409 4000 SHRA BKN012 TEMPO 1409/1424 3000 SHRA OVC010 INTER 1500/1512 3000 SHRA BKN012 PROB30 TEMPO 1406/1414 VRB25G45KT 2000 TSRA BKN012 SCT030CB PROB30 TEMPO 1504/1512 VRB20G35KT 2000 TSRA BKN012 SCT030CB

Decode

Departure Runways

ID Width Length Bearing (true/mag) Surface Threshold Overrun Markings Lighting
01 148 ft / 45 m 11,744 ft / 3,580 m 26.93° / 15.94° ASPHALT 213 ft / 65 m 0 ft / 0 m UK-APP CENTERLINE EDGE THRESHOLD CALVERT REIL-OMNI
14 98 ft / 30 m 5,787 ft / 1,764 m 145.66° / 134.67° ASPHALT 197 ft / 60 m 0 ft / 0 m APP EDGE THRESHOLD
19 148 ft / 45 m 11,744 ft / 3,580 m 206.92° / 195.93° ASPHALT 0 ft / 0 m 0 ft / 0 m UK-APP CENTERLINE EDGE THRESHOLD CALVERT TDZ REIL-OMNI
32 98 ft / 30 m 5,787 ft / 1,764 m 325.66° / 314.67° ASPHALT 197 ft / 60 m 0 ft / 0 m APP EDGE THRESHOLD

YBHM

Details ICAO YBHM (HTI)
Name Hamilton Island
Region Australia
Timezone Australia/Lindeman (UTC+10.0)
Stats Elevation 14 ft / 4 m (AMSL)
Location -20.357500° 148.952000°
Runways 1
Magnetic Variation 8.141° E

METAR

YBHM 140800Z AUTO 33019KT 9999 // NCD 27/24 Q1003

Decode

TAF

Not found

Destination Runways

ID Width Length Bearing (true/mag) Surface Threshold Overrun Markings Lighting
14 151 ft / 46 m 5,596 ft / 1,706 m 143.03° / 134.89° ASPHALT 0 ft / 0 m 0 ft / 0 m PREC-APP CENTERLINE EDGE THRESHOLD
32 151 ft / 46 m 5,596 ft / 1,706 m 323.03° / 314.89° ASPHALT 0 ft / 0 m 0 ft / 0 m PREC-APP CENTERLINE EDGE THRESHOLD

Popular Alternatives